SCP
0 0 0 0 0 0 0 0 0 0 0 0 0 0 0 0 0 0 0 0 0 0 0 0 0 0 0 0 0 -0 -0 -0 0 -0 0 0 -0 -0 -0 -0 0 0 0 0 0 0 0 0 0 0 0 0 0 0
0 0 0 0 0 0 0 0 0 0 0 0 0 0 0 0 0 0 0 0 0 0 0 0 0 0 0 -0 0 0 0 0 0 -0 0 0 0 -0 -0 -0 0 0 0 0 0 0 0 0 0 0 0 0 0 0
0 0 0 0 0 0 0 0 0 0 0 0 0 0 0 0 0 0 0 0 0 0 0 0 0 0 0 0 0 0 0 0 -0 -0 0 0 0 0 0 0 0 0 0 0 0 0 0 0 0 0 0 0 0 0
0 0 0 0 0 0 0 0 0 0 0 0 0 0 0 0 0 0 0 0 0 0 0 0 0 0 0 0 0 0 0 0 0 0 0 0 -0 -0 -0 -0 0 -0 0 0 0 0 0 0 0 0 0 0 0 0
0 0 0 0 0 0 0 0 0 0 0 0 0 0 0 0 0 0 0 0 0 0 0 0 0 0 0 0 0 0 0 0 0 -0 0 0 -0 -0 -0 -0 -0 -0 -0 0 0 0 0 0 0 0 0 0 0 0
0 0 0 0 0 0 0 0 0 0 0 0 0 0 0 0 0 0 0 0 0 0 0 0 0 0 0 0 0 0 0 0 0 0 -0 0 0 -0 -0 -0 -0 -0 -0 -0 -0 0 0 0 0 0 0 0 0 0
0 0 0 0 0 0 0 0 0 0 0 0 0 0 0 0 0 0 0 0 0 0 0 0 0 0 0 0 0 0 0 0 0 0 -0 -0 -0 -0 -0 -0 -0 -0 -0 -0 -0 0 0 0 0 0 0 0 0 0
0 0 0 0 0 0 0 0 0 0 0 0 0 0 0 0 0 0 0 0 0 0 0 0 0 0 0 0 0 0 0 0 -0 0 -0 0 0 0 0 0 0 0 0 -0 -0 -0 0 0 0 0 0 0 0 0
0 0 0 0 0 0 0 0 0 0 0 0 0 0 0 0 0 0 0 0 0 0 0 0 0 0 0 0 0 0 0 0 0 0 -0 0 0 -0 0 -0 -0 -0 -0 -0 0 0 -0 0 0 0 0 0 0 0
0 0 0 0 0 0 0 0 0 0 0 0 0 0 0 0 0 0 0 0 0 0 0 0 0 0 0 0 0 0 0 0 0 0 0 -0 -0 -0 -0 0 -0 0 0 0 0 -0 0 0 0 0 0 0 0 0
0 0 0 0 0 0 0 0 0 0 0 0 0 0 0 0 0 0 0 0 0 0 0 0 0 0 0 0 0 0 0 0 0 0 0 -0 -0 -0 0 0 0 0 0 0 -0 0 0 0 0 0 0 0 0 0
0 0 0 0 0 0 0 0 0 0 0 0 0 0 0 0 0 0 0 0 0 0 0 0 0 0 0 0 0 0 0 0 0 0 0 0 -0 0 0 0 0 0 0 0 0 0 0 0 0 0 0 0 0 0
0 0 0 0 0 0 0 0 0 0 0 0 0 0 0 0 0 0 -0 0 0 0 0 0 0 0 0 0 0 0 0 0 0 0 0 0 0 0 0 -0 -0 0 0 0 0 0 0 0 0 0 0 0 0 0
-0 -0 0 -0 -0 0 0 -0 -0 0 0 0 0 0 0 0 0 0 0 0 -0 -0 -0 0 0 0 0 0 0 0 0 0 0 0 0 0 0 0 0 0 -0 -0 0 0 0 0 0 0 0 0 0 0 0 0
-0 -0 0 0 0 -0 0 -0 -0 0 0 0 0 0 0 0 0 0 0 0 0 0 0 0 0 0 0 0 0 0 0 0 0 0 0 0 0 0 0 0 0 -0 0 0 0 0 0 0 0 0 0 0 0 0
0 0 0 0 0 0 0 -0 0 0 0 0 0 0 0 0 0 0 0 0 0 0 0 0 0 0 0 0 0 0 0 0 0 0 0 0 0 0 0 0 0 -0 -0 -0 0 0 0 0 0 0 0 0 0 0
0 0 0 0 0 0 0 0 0 0 0 0 0 0 0 0 0 0 0 0 0 0 -0 -0 -0 -0 0 0 0 0 0 0 0 0 0 0 0 0 0 0 0 0 0 -0 -0 0 0 0 0 0 0 0 0 0
0 0 0 0 0 0 0 0 0 0 0 0 0 0 0 0 0 0 0 0 0 0 0 0 0 0 0 0 0 0 0 0 0 0 0 0 0 0 -0 -0 0 0 -0 0 0 -0 -0 -0 0 -0 0 0 0 0
0 0 0 0 0 0 0 0 0 0 0 0 0 0 0 0 0 0 0 0 0 0 0 0 0 0 0 0 0 0 0 0 0 0 0 0 0 0 -0 -0 0 0 0 0 0 -0 -0 -0 -0 0 0 0 0 0
0 0 0 0 0 0 0 0 0 0 0 0 0 0 0 0 0 0 0 0 0 0 0 0 0 0 0 0 0 0 0 0 0 0 0 0 0 0 -0 -0 -0 -0 -0 -0 -0 0 0 0 -0 -0 -0 0 0 0
0 0 0 0 0 0 0 0 0 0 0 0 0 0 0 0 0 0 0 0 0 0 0 0 0 0 0 0 0 0 0 0 0 0 0 0 0 0 0 0 -0 -0 -0 -0 -0 -0 0 -0 0 -0 0 0 0 0
0 0 0 0 0 0 0 0 0 0 0 0 0 0 0 0 0 0 0 0 0 0 0 0 0 0 0 0 0 0 0 0 0 0 0 0 0 0 0 -0 -0 -0 -0 -0 -0 -0 -0 -0 -0 0 0 -0 -0 0
0 0 0 0 0 0 0 0 0 0 0 0 0 0 0 0 0 0 0 0 0 0 0 0 0 0 0 0 0 0 0 0 0 0 0 0 0 0 0 0 -0 -0 -0 -0 -0 -0 -0 0 -0 -0 0 -0 0 0
0 0 0 0 0 0 0 0 0 0 0 0 0 0 0 0 0 0 0 0 0 0 0 0 0 0 0 0 0 0 0 0 0 0 0 0 0 0 0 0 0 -0 -0 -0 -0 -0 -0 -0 0 -0 -0 -0 -0 -0
0 0 0 0 0 0 0 0 0 0 0 0 0 0 0 0 0 0 0 0 0 0 0 0 0 0 0 0 0 0 0 0 0 0 0 0 0 0 0 0 0 0 0 -0 -0 -0 -0 -0 0 0 0 0 0 -0
0 0 0 0 0 0 0 0 0 0 0 0 0 0 0 0 0 0 0 0 0 0 0 0 0 0 0 0 0 0 0 0 0 0 0 0 0 0 0 0 0 0 0 -0 -0 0 -0 -0 -0 -0 0 -0 0 0
0 0 0 0 0 0 0 0 0 0 0 0 0 0 0 0 0 0 0 0 0 0 0 0 0 0 0 0 0 0 0 0 0 0 0 0 0 0 0 0 0 0 0 0 0 0 0 0 -0 -0 0 0 0 0
0 0 0 0 0 0 0 0 0 0 0 0 0 0 0 0 0 0 0 0 0 0 0 0 0 0 0 0 0 0 0 0 0 0 0 0 0 0 0 0 0 0 0 0 0 0 0 0 0 0 0 0 0 0
0 0 0 0 0 0 0 0 0 0 0 0 0 0 0 0 0 0 0 0 0 0 0 0 0 0 0 0 0 0 0 0 0 0 0 0 0 0 0 0 0 0 0 0 0 0 0 0 0 0 0 0 0 0
0 0 0 0 0 0 0 0 0 0 0 0 0 0 0 0 0 0 0 0 0 0 0 0 0 0 0 0 0 0 0 0 0 0 0 0 0 0 0 0 0 0 0 0 0 -0 -0 -0 0 0 0 0 0 0
0 0 0 0 0 0 0 0 0 0 0 0 0 0 0 0 0 0 0 0 0 0 0 0 0 0 0 0 0 0 0 0 0 0 0 0 0 0 0 0 0 0 0 0 0 0 0 0 0 0 0 0 0 0
0 0 0 0 0 0 0 0 0 0 0 0 0 0 0 0 0 0 0 0 0 0 0 0 0 0 0 0 0 0 0 0 0 0 0 0 0 0 0 0 0 0 0 0 0 0 0 0 0 0 0 0 0 0
0 0 0 0 0 0 0 0 0 0 0 0 0 0 0 0 0 0 0 0 0 0 0 0 0 0 0 0 0 0 0 0 0 0 0 0 0 0 0 0 0 0 0 0 0 0 0 0 0 0 0 0 0 0
Wind_Speed_500mb
61 60 60 60 60 61 61 58 52 56 64 64 60 51 35 25 16 24 29 17 20 18 48 27 17 28 28 18 5 16 15 7 8 11 4 3 2 3 4 6 1 5 10 4 7 8 5 50 16 15 13 37 45 56
62 62 62 62 62 64 63 52 50 62 66 63 60 51 34 25 16 20 27 9 17 28 54 66 58 33 40 42 29 8 5 6 3 4 5 5 3 2 2 5 5 7 5 7 7 5 3 24 12 21 29 33 47 57
61 64 64 63 63 64 60 51 57 65 64 63 57 46 38 27 17 20 23 16 14 24 49 13 16 19 36 26 17 11 9 7 5 9 4 4 4 2 4 4 2 6 8 4 15 8 22 31 18 40 48 49 60 59
58 63 66 65 63 63 60 54 61 67 64 61 51 39 32 25 18 17 16 10 9 14 9 20 35 23 14 17 27 33 38 19 21 33 5 4 4 9 5 5 5 6 5 8 9 18 33 8 64 63 67 68 63 71
57 61 64 67 65 64 62 54 65 67 64 59 42 29 29 22 17 14 9 4 7 6 8 27 43 8 15 16 25 29 42 43 24 8 4 5 4 4 2 2 2 4 1 2 3 35 21 28 56 72 55 65 71 75
55 59 63 66 67 64 61 54 66 66 61 54 35 24 22 21 20 15 5 7 9 12 11 8 17 17 20 25 22 34 41 40 17 9 7 7 4 5 3 4 13 32 30 29 16 34 43 54 46 39 54 56 64 72
55 57 62 65 67 66 60 55 68 67 58 48 33 25 19 17 19 10 8 20 22 21 8 10 11 11 24 19 13 19 13 15 17 9 8 9 7 4 5 2 21 10 19 33 38 40 38 36 33 52 50 47 51 60
55 56 60 64 66 67 62 54 68 67 59 48 36 22 21 18 21 10 14 16 14 16 8 5 9 14 27 17 8 16 11 4 7 7 5 4 11 5 5 18 29 38 41 16 33 43 42 57 56 46 53 43 47 56
54 55 58 63 65 67 63 52 68 65 57 45 26 16 9 6 9 18 29 16 9 6 5 4 6 6 18 11 11 15 12 5 13 2 3 6 7 8 15 35 40 30 25 31 31 38 32 49 47 41 45 40 36 46
57 55 59 58 65 68 59 51 70 62 52 42 17 7 5 15 29 16 6 5 3 3 5 6 5 6 10 9 6 9 9 4 4 3 15 4 5 8 15 30 26 28 21 24 28 32 30 38 42 39 37 42 26 29
62 56 60 58 61 64 48 59 64 63 48 38 19 6 19 19 8 4 6 4 7 6 9 14 19 11 10 4 4 8 5 6 5 5 8 4 2 6 36 39 43 38 32 32 28 33 36 44 48 43 36 38 33 18
62 61 62 57 57 61 46 60 62 60 47 35 24 20 12 9 5 5 4 8 2 7 10 8 16 6 4 7 7 7 5 5 5 14 5 5 7 44 51 52 52 45 40 38 38 34 31 26 30 45 43 34 38 20
62 64 62 58 54 51 53 56 58 52 42 20 5 6 6 4 11 5 5 8 6 8 17 27 11 7 1 14 6 3 7 5 19 5 8 3 33 54 51 50 51 47 47 43 47 45 38 30 25 31 42 36 38 43
60 64 59 59 41 51 54 56 50 42 14 6 4 9 6 6 6 9 9 9 24 21 46 39 4 4 5 7 3 9 5 4 10 10 6 9 43 51 57 57 53 53 54 57 57 51 48 43 42 38 39 23 35 41
62 64 59 53 47 56 54 52 40 22 8 8 6 6 10 15 14 20 26 21 34 33 35 5 3 3 5 6 5 5 11 8 2 5 6 41 67 68 68 57 46 40 51 53 43 40 40 42 45 48 37 25 23 30
60 63 54 59 60 56 51 47 25 9 7 9 12 4 12 2 16 22 32 35 34 27 21 2 3 6 5 3 5 0 6 5 7 7 47 62 55 56 59 54 55 49 54 57 55 45 49 38 41 44 45 43 31 26
53 58 51 56 61 58 42 35 8 11 11 10 13 28 24 14 21 37 37 35 22 14 2 3 5 7 3 5 2 4 5 7 27 50 56 42 38 42 44 50 50 50 52 50 61 61 56 53 35 37 47 48 41 39
57 50 46 49 54 53 34 5 7 11 13 23 10 28 30 30 32 30 30 29 20 8 5 6 7 2 7 6 5 6 21 22 18 26 38 27 26 28 34 44 55 57 61 67 70 77 72 78 50 31 32 36 48 48
51 49 41 46 28 28 12 7 10 11 19 22 30 36 37 34 37 32 32 31 29 19 7 7 4 5 7 11 12 21 26 18 22 24 21 25 23 21 33 43 46 51 54 62 62 73 75 75 72 45 25 28 36 47
45 39 38 20 22 9 10 13 10 14 11 11 21 27 29 31 33 35 32 19 19 11 8 6 9 11 15 16 14 19 22 19 22 11 11 13 10 13 19 28 34 43 45 49 57 60 61 78 68 65 59 17 14 22
42 35 32 26 17 20 14 12 13 18 17 16 19 33 23 26 19 24 32 28 19 12 5 24 31 26 18 18 15 16 11 9 10 7 8 7 8 13 18 20 26 31 42 46 52 53 67 56 48 47 53 56 39 5
39 32 29 20 12 12 19 24 17 11 13 17 22 23 15 10 19 36 34 16 13 31 37 36 36 27 29 24 18 17 9 10 11 15 11 12 10 9 16 25 30 31 37 39 42 46 52 45 50 52 49 47 66 42
28 14 9 14 15 13 16 21 15 13 6 8 6 5 7 8 11 12 10 18 25 29 31 35 34 29 25 22 13 19 17 10 6 7 17 12 5 7 12 19 26 28 32 35 35 36 40 44 46 48 44 47 51 66
25 9 10 13 23 11 11 9 11 9 9 3 3 7 7 11 11 9 8 16 41 43 50 46 38 35 34 24 18 11 14 16 12 4 11 13 10 7 12 16 23 20 22 25 29 31 32 43 43 43 38 37 43 55
10 15 13 16 16 10 8 6 6 2 8 7 5 8 8 8 3 5 7 15 25 33 34 31 44 39 32 25 18 21 8 7 4 5 5 5 10 12 15 14 18 17 19 23 25 26 27 29 36 35 27 33 39 38
12 17 21 16 7 11 9 6 9 10 6 6 9 9 5 3 4 11 6 13 22 16 20 40 44 37 35 24 21 16 17 13 10 12 11 12 15 13 8 10 11 14 19 20 20 22 23 26 29 29 23 25 28 33
12 13 18 21 11 8 7 6 7 1 6 8 6 3 5 8 10 7 11 21 28 28 16 21 30 35 28 21 20 24 19 15 12 7 3 10 12 5 2 5 7 10 17 20 21 21 23 24 24 24 23 22 26 29
24 10 12 13 16 19 5 4 7 10 8 11 5 7 6 6 8 4 13 7 4 17 25 24 25 25 20 16 20 27 26 20 13 8 6 6 8 6 10 4 5 6 11 18 20 25 28 26 22 19 19 19 18 20
15 15 20 8 14 12 18 15 11 16 18 16 9 6 6 13 10 28 33 17 15 15 18 28 34 32 33 31 35 29 22 17 14 12 12 13 18 10 7 6 11 4 12 18 24 28 31 30 23 14 11 12 13 13
20 35 17 15 11 14 21 36 26 38 33 33 35 31 34 46 48 47 40 29 29 30 22 13 16 37 42 41 37 33 27 19 12 7 7 9 10 7 3 1 4 4 7 16 27 30 31 31 24 12 5 3 4 6
15 34 16 18 11 27 44 45 44 42 42 42 39 37 38 28 5 12 12 12 19 21 28 30 32 38 37 37 33 25 19 17 15 13 11 13 18 20 22 18 20 23 22 14 15 20 24 25 22 12 6 3 2 2
24 30 16 10 10 28 32 26 24 22 24 21 24 27 33 19 11 12 12 14 16 21 27 31 23 23 22 19 13 10 7 7 5 6 8 10 11 12 13 13 13 12 12 13 14 17 22 22 19 15 8 3 4 12
38 30 30 20 10 10 17 16 11 7 14 17 22 29 28 23 12 15 20 20 21 27 35 30 16 11 21 28 21 10 12 13 14 15 9 7 8 10 11 13 11 11 12 13 16 20 24 23 14 7 3 4 10 16
Wind_Direction_500mb
350 350 351 351 350 347 347 347 346 346 346 346 344 342 330 326 314 302 303 295 274 268 289 266 271 274 280 269 271 300 339 360 335 14 307 319 191 100 117 154 39 305 314 163 178 261 273 344 12 57 305 318 320 321
347 348 348 350 350 349 348 352 351 349 347 348 347 346 336 324 310 291 299 314 294 275 272 296 292 284 274 272 266 282 256 272 256 333 305 302 348 144 164 90 94 252 315 326 323 48 25 339 75 358 347 326 330 316
342 345 347 348 349 351 351 352 351 350 349 347 348 348 343 340 311 282 293 307 310 286 309 305 319 294 307 285 282 232 259 239 247 281 238 285 32 327 46 107 301 252 318 315 319 89 310 293 350 350 351 336 333 328
337 341 345 346 347 349 349 348 351 349 349 344 347 351 343 350 349 327 309 312 302 301 292 285 317 309 289 280 259 257 258 264 291 315 265 267 204 175 194 139 218 245 282 341 304 305 334 197 329 336 339 339 340 349
334 339 342 345 345 347 346 344 348 349 349 345 348 351 352 349 352 347 335 272 248 299 272 290 314 301 297 297 275 266 260 261 280 299 284 267 284 145 146 150 209 221 267 351 275 293 292 280 310 321 323 335 350 354
331 336 340 343 344 345 345 343 345 348 348 344 346 340 345 351 354 346 293 247 261 338 304 307 316 322 315 318 311 290 279 256 217 234 248 260 252 39 62 242 186 192 212 229 234 268 303 292 320 324 323 340 353 5
329 332 337 340 342 344 343 341 344 346 346 341 329 318 318 321 328 342 331 310 301 310 288 299 301 281 318 299 266 296 293 246 233 232 252 249 269 213 187 72 359 256 244 266 278 282 302 312 301 328 334 336 350 6
325 330 334 338 339 342 340 336 342 345 345 340 329 314 299 291 308 335 340 323 280 269 267 287 278 326 0 338 334 360 333 305 198 283 287 287 319 18 60 344 337 349 347 306 300 289 279 296 300 311 328 331 350 2
320 328 330 335 337 338 339 334 339 344 345 343 338 337 312 300 320 317 323 316 273 272 287 294 284 308 324 297 1 351 354 340 334 350 321 344 341 22 349 338 331 337 330 315 315 305 272 289 293 303 321 324 349 351
316 322 328 330 334 337 337 337 337 342 347 350 354 353 312 321 322 325 317 292 266 265 254 256 268 271 293 319 26 358 4 359 318 237 313 200 140 340 327 328 313 306 308 315 324 298 322 298 278 287 319 317 319 342
317 319 327 326 329 335 334 339 338 340 352 356 339 316 320 325 320 326 298 29 342 330 231 244 252 273 305 350 347 33 332 326 322 340 329 328 173 313 327 321 335 340 343 323 300 296 304 296 280 284 301 307 296 311
314 317 326 327 324 327 322 334 340 336 336 324 310 301 325 345 342 43 302 323 25 250 276 251 327 335 11 11 44 1 338 340 277 334 304 324 329 332 332 334 341 326 323 327 327 315 300 304 277 277 273 292 305 286
304 312 322 331 326 322 321 330 333 324 322 316 298 292 320 344 29 67 338 303 300 273 282 320 326 330 62 35 74 334 11 322 304 341 331 265 329 326 330 340 334 343 343 330 329 335 317 301 284 277 265 271 289 280
302 307 318 328 322 318 322 326 324 320 305 270 250 316 142 289 234 192 203 227 286 267 303 322 309 42 26 41 357 342 291 354 8 6 317 304 312 314 334 343 338 343 343 342 342 335 325 306 290 274 277 286 286 273
302 303 318 327 321 317 320 318 318 301 233 246 206 232 221 237 264 278 288 277 291 305 319 327 47 52 12 76 30 1 356 347 191 272 266 307 320 335 339 346 349 348 347 339 337 326 320 309 284 272 265 273 272 259
299 303 316 325 322 315 323 317 311 225 232 228 233 214 221 212 281 293 301 300 316 322 332 20 54 47 19 86 43 107 345 257 275 253 309 324 333 343 343 344 348 357 359 358 354 346 332 309 294 280 263 258 241 241
293 299 311 323 321 317 324 315 253 234 234 222 238 226 226 243 257 281 295 292 295 313 286 57 26 207 100 46 309 204 228 241 292 309 332 340 338 345 353 8 5 6 9 5 6 1 351 352 328 296 275 255 251 244
287 304 308 324 319 324 330 255 241 252 248 234 212 238 229 243 255 274 291 288 269 282 194 216 148 107 179 184 258 231 242 288 305 319 338 347 343 340 351 354 359 2 6 8 11 6 3 4 349 312 287 266 262 253
292 300 307 321 306 328 300 260 227 263 248 251 250 255 258 266 270 274 276 289 278 263 217 182 142 208 235 212 220 249 257 265 306 312 335 351 324 320 331 342 350 353 356 4 11 13 12 4 4 4 308 284 267 258
287 296 308 287 301 287 275 264 239 261 261 250 250 250 251 253 260 270 274 280 237 207 179 182 208 213 216 237 262 291 282 288 292 292 14 10 356 338 340 1 7 9 6 7 17 16 17 16 11 3 13 359 304 283
284 288 297 298 277 225 256 269 246 254 264 247 265 252 257 258 254 257 273 278 217 210 223 235 244 255 245 221 257 276 254 323 313 304 310 328 5 6 11 12 4 4 13 9 12 19 22 10 15 9 4 5 23 351
278 289 295 285 243 235 249 239 235 281 276 265 278 250 250 233 243 263 270 220 229 244 244 242 252 246 215 228 241 241 248 269 275 243 282 277 307 349 9 13 7 14 18 16 8 17 28 24 22 29 30 9 21 31
282 268 237 220 233 242 253 228 229 212 225 263 267 239 266 233 225 230 224 229 251 257 265 262 254 238 210 200 208 227 228 255 271 273 307 295 290 9 7 8 4 4 13 21 17 15 22 25 28 19 29 41 32 33
226 224 224 228 210 256 252 235 224 239 236 267 245 251 256 232 251 217 238 236 259 270 270 265 234 200 192 195 211 210 211 245 250 275 291 291 304 288 326 351 360 358 5 9 17 18 19 29 30 28 25 28 53 56
209 229 210 238 219 232 231 249 233 110 243 222 238 262 267 216 164 253 236 254 260 260 273 234 201 211 214 199 191 176 151 185 195 243 279 282 297 300 305 327 340 359 9 6 11 19 31 31 24 20 25 41 47 67
216 215 194 205 224 189 217 238 215 216 204 225 237 257 283 145 192 251 235 265 263 261 292 220 204 190 188 192 193 190 207 201 218 259 293 303 304 311 323 340 8 18 12 5 6 12 19 20 20 13 21 30 42 55
236 249 222 220 229 236 256 274 268 110 237 226 248 284 193 231 236 253 264 275 263 281 236 202 209 202 201 192 198 209 216 214 239 247 266 315 324 309 322 341 345 9 6 4 8 8 8 18 29 35 27 17 30 38
230 238 208 199 211 224 228 207 213 214 222 233 199 194 239 240 240 257 353 303 231 174 174 173 171 176 176 217 227 209 205 218 241 240 274 278 202 203 259 295 294 317 351 357 12 24 18 6 7 21 36 47 39 34
226 215 203 238 221 229 218 206 213 219 215 203 183 214 250 248 314 342 339 328 274 259 214 197 208 235 236 216 191 195 212 219 210 221 235 233 205 207 223 210 132 97 20 0 347 353 360 358 357 354 8 36 60 61
224 209 206 207 199 217 227 206 225 240 249 249 258 265 270 272 273 273 287 296 243 233 238 246 257 209 196 194 194 193 195 200 220 236 230 227 214 188 129 229 273 271 343 341 338 342 352 353 349 345 354 8 37 51
197 184 210 217 239 244 245 245 253 262 267 267 262 253 261 285 219 221 282 277 213 253 253 224 211 230 210 199 198 196 184 190 186 189 195 233 253 254 254 266 282 290 297 294 299 323 338 346 344 339 330 308 223 195
199 198 193 209 245 264 255 247 243 241 255 250 250 245 242 218 236 240 227 239 244 225 219 219 212 174 171 173 169 166 162 176 213 256 262 258 268 280 291 293 292 283 276 291 312 329 336 341 338 330 329 338 95 114
210 216 217 248 256 226 223 208 217 238 214 212 233 244 229 197 176 199 173 167 178 177 166 158 172 245 264 250 228 229 264 277 279 274 259 257 272 278 269 257 251 268 286 299 315 328 331 329 327 311 308 114 116 120
Wind_Speed_850mb
61 60 60 60 60 61 61 58 52 56 64 64 60 51 35 25 16 24 29 17 20 18 48 27 17 28 28 18 5 16 15 7 8 11 4 3 2 3 4 6 1 5 10 4 7 8 5 50 16 15 13 37 45 56
62 62 62 62 62 64 63 52 50 62 66 63 60 51 34 25 16 20 27 9 17 28 54 66 58 33 40 42 29 8 5 6 3 4 5 5 3 2 2 5 5 7 5 7 7 5 3 24 12 21 29 33 47 57
61 64 64 63 63 64 60 51 57 65 64 63 57 46 38 27 17 20 23 16 14 24 49 13 16 19 36 26 17 11 9 7 5 9 4 4 4 2 4 4 2 6 8 4 15 8 22 31 18 40 48 49 60 59
58 63 66 65 63 63 60 54 61 67 64 61 51 39 32 25 18 17 16 10 9 14 9 20 35 23 14 17 27 33 38 19 21 33 5 4 4 9 5 5 5 6 5 8 9 18 33 8 64 63 67 68 63 71
57 61 64 67 65 64 62 54 65 67 64 59 42 29 29 22 17 14 9 4 7 6 8 27 43 8 15 16 25 29 42 43 24 8 4 5 4 4 2 2 2 4 1 2 3 35 21 28 56 72 55 65 71 75
55 59 63 66 67 64 61 54 66 66 61 54 35 24 22 21 20 15 5 7 9 12 11 8 17 17 20 25 22 34 41 40 17 9 7 7 4 5 3 4 13 32 30 29 16 34 43 54 46 39 54 56 64 72
55 57 62 65 67 66 60 55 68 67 58 48 33 25 19 17 19 10 8 20 22 21 8 10 11 11 24 19 13 19 13 15 17 9 8 9 7 4 5 2 21 10 19 33 38 40 38 36 33 52 50 47 51 60
55 56 60 64 66 67 62 54 68 67 59 48 36 22 21 18 21 10 14 16 14 16 8 5 9 14 27 17 8 16 11 4 7 7 5 4 11 5 5 18 29 38 41 16 33 43 42 57 56 46 53 43 47 56
54 55 58 63 65 67 63 52 68 65 57 45 26 16 9 6 9 18 29 16 9 6 5 4 6 6 18 11 11 15 12 5 13 2 3 6 7 8 15 35 40 30 25 31 31 38 32 49 47 41 45 40 36 46
57 55 59 58 65 68 59 51 70 62 52 42 17 7 5 15 29 16 6 5 3 3 5 6 5 6 10 9 6 9 9 4 4 3 15 4 5 8 15 30 26 28 21 24 28 32 30 38 42 39 37 42 26 29
62 56 60 58 61 64 48 59 64 63 48 38 19 6 19 19 8 4 6 4 7 6 9 14 19 11 10 4 4 8 5 6 5 5 8 4 2 6 36 39 43 38 32 32 28 33 36 44 48 43 36 38 33 18
62 61 62 57 57 61 46 60 62 60 47 35 24 20 12 9 5 5 4 8 2 7 10 8 16 6 4 7 7 7 5 5 5 14 5 5 7 44 51 52 52 45 40 38 38 34 31 26 30 45 43 34 38 20
62 64 62 58 54 51 53 56 58 52 42 20 5 6 6 4 11 5 5 8 6 8 17 27 11 7 1 14 6 3 7 5 19 5 8 3 33 54 51 50 51 47 47 43 47 45 38 30 25 31 42 36 38 43
60 64 59 59 41 51 54 56 50 42 14 6 4 9 6 6 6 9 9 9 24 21 46 39 4 4 5 7 3 9 5 4 10 10 6 9 43 51 57 57 53 53 54 57 57 51 48 43 42 38 39 23 35 41
62 64 59 53 47 56 54 52 40 22 8 8 6 6 10 15 14 20 26 21 34 33 35 5 3 3 5 6 5 5 11 8 2 5 6 41 67 68 68 57 46 40 51 53 43 40 40 42 45 48 37 25 23 30
60 63 54 59 60 56 51 47 25 9 7 9 12 4 12 2 16 22 32 35 34 27 21 2 3 6 5 3 5 0 6 5 7 7 47 62 55 56 59 54 55 49 54 57 55 45 49 38 41 44 45 43 31 26
53 58 51 56 61 58 42 35 8 11 11 10 13 28 24 14 21 37 37 35 22 14 2 3 5 7 3 5 2 4 5 7 27 50 56 42 38 42 44 50 50 50 52 50 61 61 56 53 35 37 47 48 41 39
57 50 46 49 54 53 34 5 7 11 13 23 10 28 30 30 32 30 30 29 20 8 5 6 7 2 7 6 5 6 21 22 18 26 38 27 26 28 34 44 55 57 61 67 70 77 72 78 50 31 32 36 48 48
51 49 41 46 28 28 12 7 10 11 19 22 30 36 37 34 37 32 32 31 29 19 7 7 4 5 7 11 12 21 26 18 22 24 21 25 23 21 33 43 46 51 54 62 62 73 75 75 72 45 25 28 36 47
45 39 38 20 22 9 10 13 10 14 11 11 21 27 29 31 33 35 32 19 19 11 8 6 9 11 15 16 14 19 22 19 22 11 11 13 10 13 19 28 34 43 45 49 57 60 61 78 68 65 59 17 14 22
42 35 32 26 17 20 14 12 13 18 17 16 19 33 23 26 19 24 32 28 19 12 5 24 31 26 18 18 15 16 11 9 10 7 8 7 8 13 18 20 26 31 42 46 52 53 67 56 48 47 53 56 39 5
39 32 29 20 12 12 19 24 17 11 13 17 22 23 15 10 19 36 34 16 13 31 37 36 36 27 29 24 18 17 9 10 11 15 11 12 10 9 16 25 30 31 37 39 42 46 52 45 50 52 49 47 66 42
28 14 9 14 15 13 16 21 15 13 6 8 6 5 7 8 11 12 10 18 25 29 31 35 34 29 25 22 13 19 17 10 6 7 17 12 5 7 12 19 26 28 32 35 35 36 40 44 46 48 44 47 51 66
25 9 10 13 23 11 11 9 11 9 9 3 3 7 7 11 11 9 8 16 41 43 50 46 38 35 34 24 18 11 14 16 12 4 11 13 10 7 12 16 23 20 22 25 29 31 32 43 43 43 38 37 43 55
10 15 13 16 16 10 8 6 6 2 8 7 5 8 8 8 3 5 7 15 25 33 34 31 44 39 32 25 18 21 8 7 4 5 5 5 10 12 15 14 18 17 19 23 25 26 27 29 36 35 27 33 39 38
12 17 21 16 7 11 9 6 9 10 6 6 9 9 5 3 4 11 6 13 22 16 20 40 44 37 35 24 21 16 17 13 10 12 11 12 15 13 8 10 11 14 19 20 20 22 23 26 29 29 23 25 28 33
12 13 18 21 11 8 7 6 7 1 6 8 6 3 5 8 10 7 11 21 28 28 16 21 30 35 28 21 20 24 19 15 12 7 3 10 12 5 2 5 7 10 17 20 21 21 23 24 24 24 23 22 26 29
24 10 12 13 16 19 5 4 7 10 8 11 5 7 6 6 8 4 13 7 4 17 25 24 25 25 20 16 20 27 26 20 13 8 6 6 8 6 10 4 5 6 11 18 20 25 28 26 22 19 19 19 18 20
15 15 20 8 14 12 18 15 11 16 18 16 9 6 6 13 10 28 33 17 15 15 18 28 34 32 33 31 35 29 22 17 14 12 12 13 18 10 7 6 11 4 12 18 24 28 31 30 23 14 11 12 13 13
20 35 17 15 11 14 21 36 26 38 33 33 35 31 34 46 48 47 40 29 29 30 22 13 16 37 42 41 37 33 27 19 12 7 7 9 10 7 3 1 4 4 7 16 27 30 31 31 24 12 5 3 4 6
15 34 16 18 11 27 44 45 44 42 42 42 39 37 38 28 5 12 12 12 19 21 28 30 32 38 37 37 33 25 19 17 15 13 11 13 18 20 22 18 20 23 22 14 15 20 24 25 22 12 6 3 2 2
24 30 16 10 10 28 32 26 24 22 24 21 24 27 33 19 11 12 12 14 16 21 27 31 23 23 22 19 13 10 7 7 5 6 8 10 11 12 13 13 13 12 12 13 14 17 22 22 19 15 8 3 4 12
38 30 30 20 10 10 17 16 11 7 14 17 22 29 28 23 12 15 20 20 21 27 35 30 16 11 21 28 21 10 12 13 14 15 9 7 8 10 11 13 11 11 12 13 16 20 24 23 14 7 3 4 10 16
Wind_Direction_850mb
350 350 351 351 350 347 347 347 346 346 346 346 344 342 330 326 314 302 303 295 274 268 289 266 271 274 280 269 271 300 339 360 335 14 307 319 191 100 117 154 39 305 314 163 178 261 273 344 12 57 305 318 320 321
347 348 348 350 350 349 348 352 351 349 347 348 347 346 336 324 310 291 299 314 294 275 272 296 292 284 274 272 266 282 256 272 256 333 305 302 348 144 164 90 94 252 315 326 323 48 25 339 75 358 347 326 330 316
342 345 347 348 349 351 351 352 351 350 349 347 348 348 343 340 311 282 293 307 310 286 309 305 319 294 307 285 282 232 259 239 247 281 238 285 32 327 46 107 301 252 318 315 319 89 310 293 350 350 351 336 333 328
337 341 345 346 347 349 349 348 351 349 349 344 347 351 343 350 349 327 309 312 302 301 292 285 317 309 289 280 259 257 258 264 291 315 265 267 204 175 194 139 218 245 282 341 304 305 334 197 329 336 339 339 340 349
334 339 342 345 345 347 346 344 348 349 349 345 348 351 352 349 352 347 335 272 248 299 272 290 314 301 297 297 275 266 260 261 280 299 284 267 284 145 146 150 209 221 267 351 275 293 292 280 310 321 323 335 350 354
331 336 340 343 344 345 345 343 345 348 348 344 346 340 345 351 354 346 293 247 261 338 304 307 316 322 315 318 311 290 279 256 217 234 248 260 252 39 62 242 186 192 212 229 234 268 303 292 320 324 323 340 353 5
329 332 337 340 342 344 343 341 344 346 346 341 329 318 318 321 328 342 331 310 301 310 288 299 301 281 318 299 266 296 293 246 233 232 252 249 269 213 187 72 359 256 244 266 278 282 302 312 301 328 334 336 350 6
325 330 334 338 339 342 340 336 342 345 345 340 329 314 299 291 308 335 340 323 280 269 267 287 278 326 0 338 334 360 333 305 198 283 287 287 319 18 60 344 337 349 347 306 300 289 279 296 300 311 328 331 350 2
320 328 330 335 337 338 339 334 339 344 345 343 338 337 312 300 320 317 323 316 273 272 287 294 284 308 324 297 1 351 354 340 334 350 321 344 341 22 349 338 331 337 330 315 315 305 272 289 293 303 321 324 349 351
316 322 328 330 334 337 337 337 337 342 347 350 354 353 312 321 322 325 317 292 266 265 254 256 268 271 293 319 26 358 4 359 318 237 313 200 140 340 327 328 313 306 308 315 324 298 322 298 278 287 319 317 319 342
317 319 327 326 329 335 334 339 338 340 352 356 339 316 320 325 320 326 298 29 342 330 231 244 252 273 305 350 347 33 332 326 322 340 329 328 173 313 327 321 335 340 343 323 300 296 304 296 280 284 301 307 296 311
314 317 326 327 324 327 322 334 340 336 336 324 310 301 325 345 342 43 302 323 25 250 276 251 327 335 11 11 44 1 338 340 277 334 304 324 329 332 332 334 341 326 323 327 327 315 300 304 277 277 273 292 305 286
304 312 322 331 326 322 321 330 333 324 322 316 298 292 320 344 29 67 338 303 300 273 282 320 326 330 62 35 74 334 11 322 304 341 331 265 329 326 330 340 334 343 343 330 329 335 317 301 284 277 265 271 289 280
302 307 318 328 322 318 322 326 324 320 305 270 250 316 142 289 234 192 203 227 286 267 303 322 309 42 26 41 357 342 291 354 8 6 317 304 312 314 334 343 338 343 343 342 342 335 325 306 290 274 277 286 286 273
302 303 318 327 321 317 320 318 318 301 233 246 206 232 221 237 264 278 288 277 291 305 319 327 47 52 12 76 30 1 356 347 191 272 266 307 320 335 339 346 349 348 347 339 337 326 320 309 284 272 265 273 272 259
299 303 316 325 322 315 323 317 311 225 232 228 233 214 221 212 281 293 301 300 316 322 332 20 54 47 19 86 43 107 345 257 275 253 309 324 333 343 343 344 348 357 359 358 354 346 332 309 294 280 263 258 241 241
293 299 311 323 321 317 324 315 253 234 234 222 238 226 226 243 257 281 295 292 295 313 286 57 26 207 100 46 309 204 228 241 292 309 332 340 338 345 353 8 5 6 9 5 6 1 351 352 328 296 275 255 251 244
287 304 308 324 319 324 330 255 241 252 248 234 212 238 229 243 255 274 291 288 269 282 194 216 148 107 179 184 258 231 242 288 305 319 338 347 343 340 351 354 359 2 6 8 11 6 3 4 349 312 287 266 262 253
292 300 307 321 306 328 300 260 227 263 248 251 250 255 258 266 270 274 276 289 278 263 217 182 142 208 235 212 220 249 257 265 306 312 335 351 324 320 331 342 350 353 356 4 11 13 12 4 4 4 308 284 267 258
287 296 308 287 301 287 275 264 239 261 261 250 250 250 251 253 260 270 274 280 237 207 179 182 208 213 216 237 262 291 282 288 292 292 14 10 356 338 340 1 7 9 6 7 17 16 17 16 11 3 13 359 304 283
284 288 297 298 277 225 256 269 246 254 264 247 265 252 257 258 254 257 273 278 217 210 223 235 244 255 245 221 257 276 254 323 313 304 310 328 5 6 11 12 4 4 13 9 12 19 22 10 15 9 4 5 23 351
278 289 295 285 243 235 249 239 235 281 276 265 278 250 250 233 243 263 270 220 229 244 244 242 252 246 215 228 241 241 248 269 275 243 282 277 307 349 9 13 7 14 18 16 8 17 28 24 22 29 30 9 21 31
282 268 237 220 233 242 253 228 229 212 225 263 267 239 266 233 225 230 224 229 251 257 265 262 254 238 210 200 208 227 228 255 271 273 307 295 290 9 7 8 4 4 13 21 17 15 22 25 28 19 29 41 32 33
226 224 224 228 210 256 252 235 224 239 236 267 245 251 256 232 251 217 238 236 259 270 270 265 234 200 192 195 211 210 211 245 250 275 291 291 304 288 326 351 360 358 5 9 17 18 19 29 30 28 25 28 53 56
209 229 210 238 219 232 231 249 233 110 243 222 238 262 267 216 164 253 236 254 260 260 273 234 201 211 214 199 191 176 151 185 195 243 279 282 297 300 305 327 340 359 9 6 11 19 31 31 24 20 25 41 47 67
216 215 194 205 224 189 217 238 215 216 204 225 237 257 283 145 192 251 235 265 263 261 292 220 204 190 188 192 193 190 207 201 218 259 293 303 304 311 323 340 8 18 12 5 6 12 19 20 20 13 21 30 42 55
236 249 222 220 229 236 256 274 268 110 237 226 248 284 193 231 236 253 264 275 263 281 236 202 209 202 201 192 198 209 216 214 239 247 266 315 324 309 322 341 345 9 6 4 8 8 8 18 29 35 27 17 30 38
230 238 208 199 211 224 228 207 213 214 222 233 199 194 239 240 240 257 353 303 231 174 174 173 171 176 176 217 227 209 205 218 241 240 274 278 202 203 259 295 294 317 351 357 12 24 18 6 7 21 36 47 39 34
226 215 203 238 221 229 218 206 213 219 215 203 183 214 250 248 314 342 339 328 274 259 214 197 208 235 236 216 191 195 212 219 210 221 235 233 205 207 223 210 132 97 20 0 347 353 360 358 357 354 8 36 60 61
224 209 206 207 199 217 227 206 225 240 249 249 258 265 270 272 273 273 287 296 243 233 238 246 257 209 196 194 194 193 195 200 220 236 230 227 214 188 129 229 273 271 343 341 338 342 352 353 349 345 354 8 37 51
197 184 210 217 239 244 245 245 253 262 267 267 262 253 261 285 219 221 282 277 213 253 253 224 211 230 210 199 198 196 184 190 186 189 195 233 253 254 254 266 282 290 297 294 299 323 338 346 344 339 330 308 223 195
199 198 193 209 245 264 255 247 243 241 255 250 250 245 242 218 236 240 227 239 244 225 219 219 212 174 171 173 169 166 162 176 213 256 262 258 268 280 291 293 292 283 276 291 312 329 336 341 338 330 329 338 95 114
210 216 217 248 256 226 223 208 217 238 214 212 233 244 229 197 176 199 173 167 178 177 166 158 172 245 264 250 228 229 264 277 279 274 259 257 272 278 269 257 251 268 286 299 315 328 331 329 327 311 308 114 116 120